Naples, Italy

6:55 PM CEST on May 26, 2018 (GMT +0200)
Capodichino Mil

Weather History for LIRN - June, 2012

Change the Weather History Date:

Sunday, June 10, 2012

  Actual Average Record
Temperature  
Mean Temperature 74 °F -  
Max Temperature 80 °F 81 °F 92 °F (2014)
Min Temperature 69 °F 61 °F 55 °F (2002)
Cooling Degree Days 10    
Growing Degree Days 24 (Base 50)    
Moisture  
Dew Point 60 °F    
Average Humidity 66    
Maximum Humidity 88    
Minimum Humidity 23    
Precipitation  
Precipitation 0.00 in 0.04 in - ()
Sea Level Pressure  
Sea Level Pressure 29.92 in    
Wind  
Wind Speed 5 mph ()    
Max Wind Speed 13 mph    
Max Gust Speed -    
Visibility 6.1 miles    
Events      
Averages and records for this station are not official NWS values.
T = Trace of Precipitation, MM = Missing Value Source: Averaged Metar Reports

Daily Weather History Graph

Daily Weather History Graph

Search for Another Location

Airport or City:

Astronomy

Jun. 10, 2012 Rise Set
Actual Time 5:30 AM CEST 8:34 PM CEST
Civil Twilight 4:57 AM CEST 9:07 PM CEST
Nautical Twilight 4:15 AM CEST 9:49 PM CEST
Astronomical Twilight 3:25 AM CEST 10:39 PM CEST
Moon 12:16 AM CEST (6/10) 12:03 PM CEST (6/10)
Length of Visible Light 16h 09m
Length of Day
15h 03m
Waning Gibbous, 60% of the Moon is Illuminated
Jun 10
Waning Gibbous
Jun 11
Last Quarter
Jun 19
New
Jun 27
First Quarter
Jul 3
Full

Hourly Weather History & Observations

Time (CEST) Temp. Dew Point Humidity Pressure Visibility Wind Dir Wind Speed Gust Speed Precip Events Conditions
12:20 AM 71.6 °F 68.0 °F 88% 29.95 in 6.2 mi NNE 3.5 mph - N/A   Scattered Clouds
12:50 AM 71.6 °F 66.2 °F 83% 29.95 in 6.2 mi North 3.5 mph - N/A   Scattered Clouds
1:20 AM 71.6 °F 66.2 °F 83% 29.95 in 6.2 mi Variable 1.2 mph - N/A   Scattered Clouds
1:50 AM 71.6 °F 66.2 °F 83% 29.95 in 6.2 mi Variable 2.3 mph - N/A   Scattered Clouds
2:20 AM 69.8 °F 66.2 °F 88% 29.95 in 6.2 mi East 3.5 mph - N/A   Scattered Clouds
2:50 AM 69.8 °F 66.2 °F 88% 29.95 in 6.2 mi Variable 2.3 mph - N/A   Scattered Clouds
3:20 AM 69.8 °F 66.2 °F 88% 29.95 in 6.2 mi East 4.6 mph - N/A   Scattered Clouds
3:50 AM 69.8 °F 66.2 °F 88% 29.92 in 6.2 mi ENE 3.5 mph - N/A   Scattered Clouds
4:20 AM 69.8 °F 66.2 °F 88% 29.92 in 6.2 mi East 3.5 mph - N/A   Scattered Clouds
4:50 AM 69.8 °F 66.2 °F 88% 29.92 in 6.2 mi Variable 2.3 mph - N/A   Partly Cloudy
5:20 AM 69.8 °F 66.2 °F 88% 29.95 in 5.0 mi NW 3.5 mph - N/A   Scattered Clouds
5:50 AM 69.8 °F 66.2 °F 88% 29.95 in 5.0 mi Variable 1.2 mph - N/A   Scattered Clouds
6:20 AM 69.8 °F 64.4 °F 83% 29.95 in 5.0 mi WNW 5.8 mph - N/A   Scattered Clouds
6:50 AM 71.6 °F 64.4 °F 78% 29.95 in - NW 6.9 mph - N/A   Dust Whirls
7:20 AM 71.6 °F 62.6 °F 73% 29.95 in 6.2 mi WNW 4.6 mph - N/A   Scattered Clouds
7:50 AM 71.6 °F 64.4 °F 78% 29.95 in 6.2 mi West 5.8 mph - N/A   Scattered Clouds
8:20 AM 71.6 °F 62.6 °F 73% 29.95 in 6.2 mi NW 4.6 mph - N/A   Scattered Clouds
8:50 AM 71.6 °F 62.6 °F 73% 29.95 in 6.2 mi NW 5.8 mph - N/A   Partly Cloudy
9:20 AM 73.4 °F 64.4 °F 73% 29.95 in 6.2 mi WNW 6.9 mph - N/A   Partly Cloudy
9:50 AM 75.2 °F 64.4 °F 69% 29.95 in 6.2 mi WSW 4.6 mph - N/A   Scattered Clouds
10:20 AM 77.0 °F 57.2 °F 50% 29.92 in 6.2 mi West 5.8 mph - N/A   Partly Cloudy
10:50 AM 78.8 °F 50.0 °F 36% 29.92 in - Variable 4.6 mph - N/A   Clear
11:20 AM 78.8 °F 46.4 °F 32% 29.92 in - SW 4.6 mph - N/A   Clear
11:50 AM 78.8 °F 42.8 °F 28% 29.92 in - NW 4.6 mph - N/A   Clear
12:20 PM 80.6 °F 50.0 °F 34% 29.92 in - West 10.4 mph - N/A   Clear
12:50 PM 78.8 °F 41.0 °F 26% 29.92 in - West 10.4 mph - N/A   Clear
1:20 PM 80.6 °F 46.4 °F 30% 29.92 in - West 10.4 mph - N/A   Clear
1:50 PM 78.8 °F 37.4 °F 23% 29.92 in - West 12.7 mph - N/A   Clear
2:20 PM 78.8 °F 46.4 °F 32% 29.92 in - West 10.4 mph - N/A   Clear
2:50 PM 78.8 °F 50.0 °F 36% 29.89 in - West 10.4 mph - N/A   Clear
3:20 PM 77.0 °F 53.6 °F 44% 29.89 in 6.2 mi WNW 10.4 mph - N/A   Scattered Clouds
3:50 PM 78.8 °F 55.4 °F 44% 29.89 in 6.2 mi West 9.2 mph - N/A   Partly Cloudy
4:20 PM 77.0 °F 57.2 °F 50% 29.92 in 6.2 mi West 11.5 mph - N/A   Partly Cloudy
4:50 PM 75.2 °F 60.8 °F 61% 29.89 in - West 11.5 mph - N/A   Clear
5:20 PM 75.2 °F 60.8 °F 61% 29.89 in - West 8.1 mph - N/A   Clear
5:50 PM 75.2 °F 60.8 °F 61% 29.89 in - West 9.2 mph - N/A   Clear
6:20 PM 73.4 °F 62.6 °F 69% 29.89 in - West 11.5 mph - N/A   Clear
6:50 PM 73.4 °F 62.6 °F 69% 29.89 in 6.2 mi West 11.5 mph - N/A   Scattered Clouds
7:20 PM 71.6 °F 62.6 °F 73% 29.89 in 6.2 mi West 6.9 mph - N/A   Partly Cloudy
7:50 PM 71.6 °F 62.6 °F 73% 29.89 in 6.2 mi West 5.8 mph - N/A   Partly Cloudy
8:20 PM 69.8 °F 62.6 °F 78% 29.89 in 6.2 mi West 5.8 mph - N/A   Partly Cloudy
8:50 PM 69.8 °F 62.6 °F 78% 29.89 in - WSW 4.6 mph - N/A   Clear
9:20 PM 69.8 °F 59.0 °F 68% 29.89 in - WSW 5.8 mph - N/A   Clear
9:50 PM 69.8 °F 60.8 °F 73% 29.89 in - Variable 2.3 mph - N/A   Clear
10:20 PM 69.8 °F 60.8 °F 73% 29.92 in - Variable 2.3 mph - N/A   Clear
10:50 PM 69.8 °F 60.8 °F 73% 29.92 in - South 3.5 mph - N/A   Clear
11:20 PM 69.8 °F 60.8 °F 73% 29.92 in 6.2 mi SW 4.6 mph - N/A   Partly Cloudy
11:50 PM 69.8 °F 62.6 °F 78% 29.89 in 6.2 mi SSW 4.6 mph - N/A   Partly Cloudy